DW0148 Weather Reports


Display with metric or nautical units.
time (UTC)temp
F
wind
direction
speed
MPH
gust
MPH
rain 1hr
in
rain 24hr
in
rain mn
in
humidity
%
barometer
mb
20170816152711 84 230 1.0 3.0 0.00 0.00 0.00 78 1018.6
20170816152210 84 143 1.0 5.0 0.00 0.00 0.00 79 1018.6
20170816151710 83 145 2.0 5.0 0.00 0.00 0.00 79 1018.6
20170816151209 83 178 3.0 6.0 0.00 0.00 0.00 81 1018.6
20170816150708 82 160 2.0 6.0 0.00 0.00 0.00 80 1018.6
20170816150207 82 183 2.0 5.0 0.00 0.00 0.00 81 1018.6
20170816145706 82 136 3.0 5.0 0.00 0.00 0.00 80 1018.6
20170816145205 82 17 2.0 4.0 0.00 0.00 0.00 83 1018.6
20170816144704 81 31 1.0 6.0 0.00 0.00 0.00 81 1018.6
20170816144204 81 36 2.0 6.0 0.00 0.00 0.00 82 1018.3
20170816143703 81 212 3.0 6.0 0.00 0.00 0.00 82 1018.6
20170816143202 80 210 2.0 6.0 0.00 0.00 0.00 83 1018.6
20170816142701 79 173 2.0 6.0 0.00 0.00 0.00 86 1018.6
20170816142200 80 33 4.0 6.0 0.00 0.00 0.00 84 1018.6
20170816141659 80 45 2.0 5.0 0.00 0.00 0.00 85 1018.6
20170816141158 79 4 2.0 4.0 0.00 0.00 0.00 87 1018.6
20170816140657 79 50 1.0 4.0 0.00 0.00 0.00 85 1018.6
20170816140156 79 302 1.0 3.0 0.00 0.00 0.00 86 1018.6
20170816135655 78 354 2.0 3.0 0.00 0.00 0.00 87 1018.6
20170816135152 78 159 2.0 3.0 0.00 0.00 0.00 88 1018.6
20170816134651 77 225 0.0 2.0 0.00 0.00 0.00 88 1018.6
20170816134150 76 224 0.0 2.0 0.00 0.00 0.00 91 1018.6
20170816133649 76 352 0.0 3.0 0.00 0.00 0.00 91 1018.6
20170816133149 76 52 1.0 3.0 0.00 0.00 0.00 91 1018.6
20170816132648 76 143 1.0 3.0 0.00 0.00 0.00 91 1018.6
20170816132146 75 155 0.0 1.0 0.00 0.00 0.00 94 1018.6
20170816131645 74 149 0.0 1.0 0.00 0.00 0.00 96 1018.6
20170816131145 73 167 0.0 1.0 0.00 0.00 0.00 96 1018.6
20170816130644 73 166 0.0 2.0 0.00 0.00 0.00 96 1018.6
20170816130143 73 166 0.0 4.0 0.00 0.00 0.00 96 1018.6
20170816125642 72 166 0.0 4.0 0.00 0.00 0.00 96 1018.6
20170816125140 72 146 1.0 5.0 0.00 0.00 0.00 96 1018.3
20170816124639 72 205 1.0 5.0 0.00 0.00 0.00 96 1018.3
20170816124138 72 151 1.0 4.0 0.00 0.00 0.00 97 1018.3
20170816123637 72 176 2.0 4.0 0.00 0.00 0.00 97 1018.3
20170816123136 72 248 1.0 1.0 0.00 0.00 0.00 97 1018.3
20170816122635 72 98 1.0 1.0 0.00 0.00 0.00 97 1018.3
20170816122135 71 87 0.0 1.0 0.00 0.00 0.00 97 1018.3
20170816121634 71 68 0.0 1.0 0.00 0.00 0.00 97 1018.3
20170816121133 71 68 1.0 2.0 0.00 0.00 0.00 97 1018.3
20170816120632 71 44 0.0 2.0 0.00 0.00 0.00 97 1018.3
20170816120131 71 44 0.0 3.0 0.00 0.00 0.00 96 1018.3
20170816115642 71 44 1.0 3.0 0.00 0.00 0.00 97 1017.9
20170816115129 71 36 1.0 1.0 0.00 0.00 0.00 97 1017.9
20170816114628 71 34 1.0 1.0 0.00 0.00 0.00 97 1017.9
20170816114127 71 34 1.0 1.0 0.00 0.00 0.00 97 1017.9
20170816113626 71 1 0.0 1.0 0.00 0.00 0.00 96 1017.9
20170816113126 71 1 0.0 0.0 0.00 0.00 0.00 97 1017.9
20170816112625 71 1 0.0 0.0 0.00 0.00 0.00 97 1017.9
20170816112124 71 1 0.0 0.0 0.00 0.00 0.00 97 1017.9
20170816111623 71 1 0.0 0.0 0.00 0.00 0.00 96 1017.9
20170816111122 71 1 0.0 0.0 0.00 0.00 0.00 97 1017.6
20170816110621 71 1 0.0 0.0 0.00 0.00 0.00 97 1017.6
20170816110120 71 1 0.0 0.0 0.00 0.00 0.00 97 1017.6
20170816105619 71 1 0.0 0.0 0.00 0.00 0.00 97 1017.6
20170816105117 71 1 0.0 0.0 0.00 0.00 0.00 97 1017.3
20170816104616 70 1 0.0 0.0 0.00 0.00 0.00 97 1017.3
20170816104115 70 1 0.0 0.0 0.00 0.00 0.00 97 1017.3
20170816103614 70 1 0.0 0.0 0.00 0.00 0.00 97 1017.3
20170816103113 70 1 0.0 0.0 0.00 0.00 0.00 96 1017.3
20170816102613 70 1 0.0 0.0 0.00 0.00 0.00 96 1016.9
20170816102112 70 1 0.0 0.0 0.00 0.00 0.00 96 1016.9
20170816101611 70 1 0.0 0.0 0.00 0.00 0.00 96 1016.9
20170816101110 70 1 0.0 1.0 0.00 0.00 0.00 96 1016.9
20170816100609 70 1 0.0 1.0 0.00 0.00 0.00 96 1016.9
20170816100108 70 1 0.0 1.0 0.00 0.00 0.00 96 1016.9
20170816095608 70 1 0.0 1.0 0.00 0.00 0.00 96 1016.9
20170816095107 70 284 0.0 1.0 0.00 0.00 0.00 96 1016.9
20170816094605 70 27 0.0 1.0 0.00 0.00 0.00 96 1016.6
20170816094104 70 27 0.0 1.0 0.00 0.00 0.00 96 1016.6
20170816093603 70 34 0.0 1.0 0.00 0.00 0.00 96 1016.6
20170816093102 70 34 0.0 1.0 0.00 0.00 0.00 96 1016.3
20170816092603 70 30 0.0 0.0 0.00 0.00 0.00 96 1016.3
20170816091600 70 30 0.0 0.0 0.00 0.00 0.00 96 1016.3
20170816091058 70 30 0.0 0.0 0.00 0.00 0.00 96 1016.3
20170816090557 70 30 0.0 0.0 0.00 0.00 0.00 96 1015.9
20170816090056 70 30 0.0 0.0 0.00 0.00 0.00 96 1015.9
20170816085555 70 30 0.0 0.0 0.00 0.00 0.00 96 1015.9
20170816085054 70 30 0.0 0.0 0.00 0.00 0.00 96 1015.9
20170816084553 70 30 0.0 0.0 0.00 0.00 0.00 96 1015.9
20170816084052 70 30 0.0 0.0 0.00 0.00 0.00 96 1015.9
20170816083551 70 30 0.0 0.0 0.00 0.00 0.00 96 1015.9
20170816083049 70 30 0.0 0.0 0.00 0.00 0.00 96 1015.9
20170816082549 70 30 0.0 0.0 0.00 0.00 0.00 96 1015.9
20170816082048 70 30 0.0 0.0 0.00 0.00 0.00 96 1015.9
20170816081546 70 30 0.0 0.0 0.00 0.00 0.00 96 1015.6
20170816081045 70 30 0.0 0.0 0.00 0.00 0.00 96 1015.6
20170816080544 70 30 0.0 0.0 0.00 0.00 0.00 96 1015.6
20170816080043 70 30 0.0 0.0 0.00 0.00 0.00 96 1015.6
20170816075542 70 30 0.0 0.0 0.00 0.00 0.00 96 1015.6
20170816075041 70 30 0.0 0.0 0.00 0.00 0.00 96 1015.6
20170816074540 70 30 0.0 0.0 0.00 0.00 0.00 96 1015.6
20170816074039 70 30 0.0 0.0 0.00 0.00 0.00 96 1015.6
20170816073538 70 30 0.0 0.0 0.00 0.00 0.00 96 1015.6
20170816073038 70 30 0.0 0.0 0.00 0.00 0.00 96 1015.6
20170816072537 70 30 0.0 0.0 0.00 0.00 0.00 96 1015.6
20170816072036 70 30 0.0 0.0 0.00 0.00 0.00 96 1015.6
20170816071535 70 30 0.0 0.0 0.00 0.00 0.00 96 1015.6
20170816071034 70 30 0.0 0.0 0.00 0.00 0.00 96 1015.6
20170816070533 70 30 0.0 0.0 0.00 0.00 0.00 96 1015.6
20170816070033 70 30 0.0 0.0 0.00 0.00 0.00 96 1015.2
20170816065532 70 30 0.0 0.0 0.00 0.00 0.00 96 1015.2
20170816065031 70 30 0.0 0.0 0.00 0.00 0.00 96 1015.2
20170816064530 70 30 0.0 0.0 0.00 0.00 0.00 96 1015.2
20170816064029 70 30 0.0 0.0 0.00 0.00 0.00 96 1015.2
20170816063528 71 30 0.0 0.0 0.00 0.00 0.00 96 1015.2
20170816063028 71 30 0.0 0.0 0.00 0.00 0.00 96 1015.2
20170816062527 71 30 0.0 0.0 0.00 0.00 0.00 96 1015.2
20170816062026 71 30 0.0 0.0 0.00 0.00 0.00 96 1015.2
20170816061525 71 30 0.0 0.0 0.00 0.00 0.00 96 1015.2
20170816061025 71 30 0.0 0.0 0.00 0.00 0.00 96 1015.2
20170816060524 71 30 0.0 0.0 0.00 0.00 0.00 96 1015.2
20170816060023 71 30 0.0 0.0 0.00 0.00 0.00 96 1015.2
20170816055522 71 30 0.0 0.0 0.00 0.00 0.00 95 1015.2
20170816055021 71 30 0.0 0.0 0.00 0.00 0.00 95 1015.2
20170816054520 71 30 0.0 0.0 0.00 0.00 0.00 96 1015.2
20170816054019 71 30 0.0 0.0 0.00 0.00 0.00 95 1015.2
20170816053518 71 30 0.0 1.0 0.00 0.00 0.00 96 1015.2
20170816053017 71 30 0.0 1.0 0.00 0.00 0.00 95 1015.2
20170816052516 71 30 0.0 1.0 0.00 0.00 0.00 95 1015.6
20170816052013 71 30 0.0 1.0 0.00 0.00 0.00 95 1015.6
20170816051513 71 30 0.0 0.0 0.00 0.00 0.00 95 1015.6
20170816051011 71 30 0.0 0.0 0.00 0.00 0.00 95 1015.6
20170816050510 71 30 0.0 0.0 0.00 0.00 0.00 95 1015.6
20170816050010 71 30 0.0 0.0 0.00 0.00 0.00 95 1015.6
20170816045509 71 30 0.0 0.0 0.00 0.00 0.00 95 1015.6
20170816045007 72 30 0.0 0.0 0.00 0.00 0.00 95 1015.6
20170816044506 72 30 0.0 0.0 0.00 0.00 0.00 95 1015.6
20170816044005 72 30 0.0 0.0 0.00 0.00 0.00 95 1015.6
20170816043504 72 30 0.0 0.0 0.00 0.00 0.00 95 1015.6
20170816043004 72 30 0.0 0.0 0.00 0.00 0.00 95 1015.6
20170816042502 72 30 0.0 0.0 0.00 0.00 0.00 94 1015.9
20170816042001 72 28 0.0 1.0 0.00 0.00 0.00 94 1015.9
20170816041500 72 30 0.0 1.0 0.00 0.00 0.00 94 1015.6
20170816040959 72 30 0.0 1.0 0.00 0.00 0.00 94 1015.6
20170816040458 72 29 1.0 1.0 0.00 0.00 0.00 94 1015.6
20170816035957 72 30 0.0 0.0 0.00 0.00 0.00 94 1015.6
20170816035456 72 30 0.0 0.0 0.00 0.00 0.00 94 1015.6
20170816034954 72 30 0.0 0.0 0.00 0.00 0.00 94 1015.6
20170816034453 73 30 0.0 0.0 0.00 0.00 0.00 94 1015.6
20170816033952 73 30 0.0 0.0 0.00 0.00 0.00 94 1015.6
20170816033451 73 30 0.0 0.0 0.00 0.00 0.00 94 1015.2
20170816032950 73 30 0.0 0.0 0.00 0.00 0.00 94 1015.2
20170816032449 73 30 0.0 0.0 0.00 0.00 0.00 94 1015.2
20170816031948 73 30 0.0 0.0 0.00 0.00 0.00 94 1015.2
20170816031448 73 30 0.0 1.0 0.00 0.00 0.00 94 1015.2
20170816030947 73 30 0.0 1.0 0.00 0.00 0.00 94 1015.2
20170816030446 73 30 0.0 1.0 0.00 0.00 0.00 94 1015.2
20170816025945 73 30 0.0 1.0 0.00 0.00 0.00 94 1015.2
20170816025444 73 34 1.0 1.0 0.00 0.00 0.00 94 1015.2
20170816024943 73 30 1.0 1.0 0.00 0.00 0.00 94 1015.2
20170816024442 73 9 0.0 1.0 0.00 0.00 0.00 94 1015.2
20170816023941 73 9 0.0 1.0 0.00 0.00 0.00 94 1014.9
20170816023439 73 9 1.0 1.0 0.00 0.00 0.00 94 1015.2
20170816022939 73 9 0.0 0.0 0.00 0.00 0.00 94 1014.9
20170816022438 73 9 0.0 0.0 0.00 0.00 0.00 94 1014.9
20170816021936 73 9 0.0 0.0 0.00 0.00 0.00 94 1014.9
20170816021435 73 9 0.0 0.0 0.00 0.00 0.00 93 1014.9
20170816020934 73 9 0.0 0.0 0.00 0.00 0.00 93 1014.9
20170816020433 73 9 0.0 0.0 0.00 0.00 0.00 93 1014.9
20170816015932 73 9 0.0 0.0 0.00 0.00 0.00 93 1014.9
20170816015431 73 9 0.0 0.0 0.00 0.00 0.00 93 1014.6
20170816014929 74 9 0.0 0.0 0.00 0.00 0.00 92 1014.6
20170816014428 74 9 0.0 0.0 0.00 0.00 0.00 92 1014.6
20170816013853 74 9 0.0 0.0 0.00 0.00 0.00 92 1014.6
20170816013353 74 9 0.0 0.0 0.00 0.00 0.00 91 1014.6
20170816012851 74 9 0.0 0.0 0.00 0.00 0.00 91 1014.6
20170816012350 74 9 0.0 0.0 0.00 0.00 0.00 91 1014.6
20170816011849 74 9 0.0 0.0 0.00 0.00 0.00 91 1014.2
20170816011348 74 9 0.0 0.0 0.00 0.00 0.00 91 1014.2
20170816010847 75 9 0.0 0.0 0.00 0.00 0.00 90 1014.2
20170816010347 75 9 0.0 0.0 0.00 0.00 0.00 90 1014.2
20170816005845 75 9 0.0 0.0 0.00 0.00 0.00 90 1014.2
20170816005344 75 9 0.0 0.0 0.00 0.00 0.00 89 1013.9
20170816004841 75 9 0.0 0.0 0.00 0.00 0.00 89 1013.9
20170816004340 76 9 0.0 0.0 0.00 0.00 0.00 89 1013.5
20170816003839 76 9 0.0 0.0 0.00 0.00 0.00 88 1013.5
20170816003339 76 9 0.0 0.0 0.00 0.00 0.00 88 1013.5
20170816002838 77 9 0.0 1.0 0.00 0.00 0.00 87 1013.5
20170816002337 77 9 0.0 1.0 0.00 0.00 0.00 86 1013.5
20170816001835 77 9 0.0 1.0 0.00 0.00 0.00 86 1013.2
20170816001335 77 9 1.0 1.0 0.00 0.00 0.00 84 1013.5
20170816000833 78 9 0.0 1.0 0.00 0.00 0.00 84 1013.5
20170816000332 78 9 1.0 1.0 0.00 0.00 0.00 83 1013.5
20170815235832 79 9 0.0 1.0 0.00 0.00 0.00 82 1013.2
20170815235331 79 9 0.0 1.0 0.00 0.00 0.00 82 1013.2
20170815234829 80 9 0.0 1.0 0.00 0.00 0.00 81 1013.2
20170815234328 80 9 1.0 1.0 0.00 0.00 0.00 80 1013.2
20170815233827 81 9 0.0 1.0 0.00 0.00 0.00 78 1013.2
20170815233326 82 6 1.0 1.0 0.00 0.00 0.00 76 1013.2
20170815232825 82 1 0.0 1.0 0.00 0.00 0.00 73 1012.9
20170815232324 82 1 0.0 2.0 0.00 0.00 0.00 73 1012.9
20170815231823 83 1 0.0 3.0 0.00 0.00 0.00 73 1013.2
20170815231322 84 1 1.0 4.0 0.00 0.00 0.00 71 1012.9
20170815230821 84 11 1.0 4.0 0.00 0.00 0.00 70 1013.2
20170815230320 84 77 4.0 4.0 0.00 0.00 0.00 69 1012.9
20170815225819 84 117 0.0 2.0 0.00 0.00 0.00 67 1012.9
20170815225318 84 209 1.0 3.0 0.00 0.00 0.00 68 1012.9
20170815224817 85 125 2.0 3.0 0.00 0.00 0.00 65 1012.9
20170815224316 85 103 1.0 3.0 0.00 0.00 0.00 66 1012.9
20170815223815 86 177 0.0 3.0 0.00 0.00 0.00 66 1012.9
20170815223314 86 178 1.0 4.0 0.00 0.00 0.00 61 1012.5
20170815222813 86 154 2.0 4.0 0.00 0.00 0.00 61 1012.5
20170815222312 87 267 0.0 4.0 0.00 0.00 0.00 59 1012.5
20170815221811 87 272 1.0 3.0 0.00 0.00 0.00 62 1012.5
20170815221310 87 271 0.0 5.0 0.00 0.00 0.00 60 1012.2
20170815220809 87 106 1.0 5.0 0.00 0.00 0.00 61 1012.2
20170815220308 88 74 2.0 6.0 0.00 0.00 0.00 60 1012.2
20170815215807 88 287 0.0 6.0 0.00 0.00 0.00 61 1012.2
20170815215306 89 73 1.0 3.0 0.00 0.00 0.00 57 1012.2
20170815214804 89 1 1.0 3.0 0.00 0.00 0.00 59 1012.5
20170815214303 89 284 1.0 3.0 0.00 0.00 0.00 60 1012.5
20170815213802 88 78 1.0 3.0 0.00 0.00 0.00 60 1012.5
20170815213300 89 198 1.0 5.0 0.00 0.00 0.00 61 1012.5
20170815212759 89 176 2.0 6.0 0.00 0.00 0.00 55 1012.5
20170815212258 89 274 1.0 8.0 0.00 0.00 0.00 61 1012.5
20170815211756 89 141 3.0 8.0 0.00 0.00 0.00 56 1012.5
20170815211256 90 157 2.0 7.0 0.00 0.00 0.00 56 1012.5
20170815210755 90 162 3.0 7.0 0.00 0.00 0.00 56 1012.5
20170815210254 90 177 2.0 8.0 0.00 0.00 0.00 54 1012.5
20170815205753 90 154 2.0 8.0 0.00 0.00 0.00 56 1012.5
20170815205252 89 147 2.0 5.0 0.00 0.00 0.00 61 1012.5
20170815204751 89 127 2.0 5.0 0.00 0.00 0.00 58 1012.9
20170815204250 89 202 1.0 5.0 0.00 0.00 0.00 60 1012.5
20170815203749 88 143 3.0 5.0 0.00 0.00 0.00 61 1012.5
20170815203248 87 117 1.0 5.0 0.00 0.00 0.00 63 1012.5
20170815202744 87 90 2.0 5.0 0.00 0.00 0.00 64 1012.9
20170815202244 88 15 0.0 6.0 0.00 0.00 0.00 62 1012.9
20170815201743 89 19 0.0 6.0 0.00 0.00 0.00 60 1012.9
20170815201242 91 339 2.0 6.0 0.00 0.00 0.00 57 1012.9
20170815200741 90 57 2.0 6.0 0.00 0.00 0.00 60 1012.9
20170815200240 90 170 3.0 6.0 0.00 0.00 0.00 58 1013.2
20170815195739 90 138 3.0 6.0 0.00 0.00 0.00 58 1013.2
20170815195238 90 176 4.0 8.0 0.00 0.00 0.00 59 1013.2
20170815194737 89 201 1.0 8.0 0.00 0.00 0.00 59 1013.2
20170815194236 89 159 3.0 6.0 0.00 0.00 0.00 60 1013.2
20170815193735 90 163 3.0 6.0 0.00 0.00 0.00 60 1013.2
20170815193234 91 166 3.0 6.0 0.00 0.00 0.00 59 1013.2
20170815192733 91 108 3.0 5.0 0.00 0.00 0.00 56 1013.2
20170815192232 90 180 1.0 7.0 0.00 0.00 0.00 64 1013.5
20170815191730 89 133 2.0 7.0 0.00 0.00 0.00 60 1013.5
20170815191230 89 160 2.0 9.0 0.00 0.00 0.00 60 1013.5
20170815190728 89 155 3.0 9.0 0.00 0.00 0.00 61 1013.5
20170815190227 89 189 4.0 9.0 0.00 0.00 0.00 62 1013.5
20170815185725 89 152 5.0 9.0 0.00 0.00 0.00 58 1013.9
20170815185225 89 172 3.0 9.0 0.00 0.00 0.00 60 1013.9
20170815184723 89 151 4.0 9.0 0.00 0.00 0.00 58 1013.9
20170815184222 89 178 1.0 6.0 0.00 0.00 0.00 63 1013.9
20170815183721 88 209 2.0 6.0 0.00 0.00 0.00 62 1013.9
20170815183221 87 170 1.0 6.0 0.00 0.00 0.00 64 1013.9
20170815182720 88 124 3.0 6.0 0.00 0.00 0.00 62 1013.9
20170815182219 87 176 3.0 5.0 0.00 0.00 0.00 68 1013.9
20170815181717 86 228 1.0 5.0 0.00 0.00 0.00 67 1014.2
20170815181216 87 132 3.0 5.0 0.00 0.00 0.00 62 1014.2
20170815180715 87 185 2.0 4.0 0.00 0.00 0.00 62 1014.2
20170815180213 87 81 2.0 5.0 0.00 0.00 0.00 62 1014.2
20170815175712 87 98 1.0 5.0 0.00 0.00 0.00 63 1014.2
20170815175211 87 227 1.0 5.0 0.00 0.00 0.00 64 1014.2
20170815174710 87 236 2.0 5.0 0.00 0.00 0.00 64 1014.2
20170815174209 87 216 2.0 5.0 0.00 0.00 0.00 67 1014.2
20170815173709 86 217 2.0 5.0 0.00 0.00 0.00 68 1014.6
20170815173208 86 279 1.0 5.0 0.00 0.00 0.00 69 1014.6
20170815172707 85 206 2.0 8.0 0.00 0.00 0.00 69 1014.6
20170815172205 85 300 1.0 9.0 0.00 0.00 0.00 69 1014.6
20170815171701 85 154 3.0 10.0 0.00 0.00 0.00 67 1014.6
20170815171201 85 155 5.0 11.0 0.00 0.00 0.00 66 1014.6
20170815170700 85 145 3.0 11.0 0.00 0.00 0.00 66 1014.9
20170815170159 85 155 3.0 8.0 0.00 0.00 0.00 68 1014.9
20170815165658 85 137 3.0 8.0 0.00 0.00 0.00 67 1014.9
20170815165156 85 147 5.0 9.0 0.00 0.00 0.00 69 1014.9
20170815164653 85 167 3.0 9.0 0.00 0.00 0.00 68 1014.9
20170815164152 84 143 4.0 8.0 0.00 0.00 0.00 70 1014.9
20170815163651 84 156 2.0 6.0 0.00 0.00 0.00 70 1014.9
20170815163150 84 163 3.0 6.0 0.00 0.00 0.00 72 1014.9
20170815162649 83 153 3.0 6.0 0.00 0.00 0.00 71 1014.9
20170815162148 83 171 2.0 6.0 0.00 0.00 0.00 72 1015.2
20170815161646 83 165 3.0 6.0 0.00 0.00 0.00 73 1015.2
20170815161145 83 155 4.0 8.0 0.00 0.00 0.00 72 1015.2
20170815160644 83 165 4.0 8.0 0.00 0.00 0.00 76 1015.2
20170815160143 82 145 3.0 6.0 0.00 0.00 0.00 74 1015.2
20170815155642 83 166 2.0 5.0 0.00 0.00 0.00 75 1014.9
20170815155141 82 195 1.0 3.0 0.00 0.00 0.00 76 1014.9
20170815154639 82 164 1.0 4.0 0.00 0.00 0.00 76 1014.9
20170815154139 81 221 1.0 4.0 0.00 0.00 0.00 77 1014.9
20170815153637 81 235 1.0 6.0 0.00 0.00 0.00 80 1014.9
20170815153136 81 140 2.0 6.0 0.00 0.00 0.00 76 1014.9